Home   Weather   41°45'N, 71°26'W   Past weeks
Flag for USA

Past Weather in 41°45'N, 71°26'W, USA — Yesterday and Last 2 Weeks

Now
60 °F

Partly sunny.


Feels Like: 60 °F
Forecast: 62 / 42 °F
Wind: 7 mph from South

Location: Green State Airport

Current Time: Oct 15, 2019 at 5:29:24 pm

Latest Report: Oct 15, 2019 at 4:51 pm


Visibility: 10 mi

Pressure: 30.07 "Hg

Humidity: 46%

Dew Point: 39 °F

Location of 41°45'N, 71°26'WLocation

Past Weather in 41°45'N, 71°26'W — Graph

°F

41°45'N, 71°26'W Temperature Yesterday

Maximum temperature yesterday: 68 °F (at 3:51 pm)
Minimum temperature yesterday: 50 °F (at 12:51 am)
Average temperature yesterday: 59 °F

High & Low Weather Summary for the Past Weeks

 TemperatureHumidityPressure
High82 °F (Oct 2, 2:51 pm)100% (Oct 2, 7:51 pm)30.46 "Hg (Oct 2, 7:51 pm)
Low39 °F (Oct 6, 4:51 am)33% (Oct 5, 2:51 pm)29.75 "Hg (Oct 2, 1:51 pm)
Average57 °F78%30.12 "Hg
* Reported Sep 30 3:51 pm — Oct 15 3:51 pm, 41°45'N, 71°26'W. Weather by CustomWeather, © 2019

Note: Actual official high and low records may vary slightly from our data, if they occured in-between our weather recording intervals... More about our weather records

Advertising

41°45'N, 71°26'W Weather History for the Previous 24 Hours

Scroll right to see more
 ConditionsComfort  
Time TempWeatherWind HumidityBarometerVisibility
3:51 pm
Tue, Oct 15
63 °FScattered clouds.8 mph37%30.09 "Hg10 mi
2:51 pm62 °FScattered clouds.No wind38%30.10 "Hg10 mi
1:51 pm62 °FPassing clouds.9 mph38%30.11 "Hg10 mi
12:51 pm61 °FPassing clouds.6 mph39%30.13 "Hg10 mi
11:51 am59 °FPassing clouds.8 mph41%30.15 "Hg10 mi
10:51 am57 °FPassing clouds.9 mph47%30.15 "Hg10 mi
9:51 am55 °FPassing clouds.10 mph53%30.16 "Hg10 mi
8:51 am52 °FPassing clouds.9 mph61%30.15 "Hg10 mi
7:51 am49 °FPassing clouds.6 mph66%30.13 "Hg10 mi
6:51 am47 °FPassing clouds.5 mph74%30.11 "Hg10 mi
5:51 am49 °FPassing clouds.5 mph71%30.10 "Hg10 mi
4:51 am51 °FClear.8 mph66%30.08 "Hg10 mi
3:51 am52 °FClear.7 mph66%30.06 "Hg10 mi
2:51 am54 °FClear.3 mph64%30.05 "Hg10 mi
1:51 am54 °FClear.6 mph77%30.03 "Hg10 mi
12:51 am57 °FClear.6 mph78%30.01 "Hg10 mi
11:51 pm
Mon, Oct 14
58 °FPassing clouds.10 mph93%30.01 "Hg10 mi
10:51 pm57 °FPassing clouds.7 mph96%29.99 "Hg10 mi
9:51 pm58 °FClear.8 mph93%29.98 "Hg10 mi
8:51 pm57 °FPassing clouds.7 mph96%29.97 "Hg10 mi
7:51 pm57 °FPassing clouds.9 mph93%29.95 "Hg10 mi
6:51 pm59 °FClear.9 mph87%29.93 "Hg10 mi
5:51 pm61 °FPassing clouds.5 mph90%29.92 "Hg10 mi
Weather by CustomWeather, © 2019

See weather overview